User: anonymous   Login
Location: Unspecified
(0.0000°N, 0.0000°E)
Time: 13:10:31
(UTC+00:00)
Language:

UOSAT-12 - Orbit

View from above orbital plane
View from above orbital plane
View from above satellite
View from above satellite

Ground track
Ground track

The orbit data is extracted from the following two-line orbital elements,

1 25693U 99021A   21015.57517477 -.00000057  00000-0  11713-4 0  9998
2 25693  64.5564  52.5920 0036931 307.7885  51.9877 14.80917523173592
Epoch (UTC): 15 January 2021 13:48:15
Eccentricity: 0.0036931
inclination: 64.5564°
perigee height: 600 km
apogee height: 652 km
right ascension of ascending node: 52.5920°
argument of perigee: 307.7885°
revolutions per day: 14.80917523
mean anomaly at epoch: 51.9877°
orbit number at epoch: 17359

The dashed part of the orbit path shows where the satellite is in the earth's shadow,  

DLR